RH
8 12 16 21 23 25 31 34 36 37 42 44 44 44 41 45 47 43 36 30 27 25 26 30 29 29 31 32 33 32 31 32 45 55 49 47 46 44 45 45 41 39 39 40
8 10 14 20 24 25 27 32 33 36 43 43 44 44 43 45 45 46 45 36 30 24 26 29 27 29 29 31 32 31 29 32 37 42 41 39 38 37 38 35 38 33 31 31
8 7 13 17 19 25 28 30 33 40 41 42 46 44 41 42 44 46 47 45 36 32 27 28 28 29 29 30 31 27 28 30 31 35 37 34 33 31 33 30 29 27 24 25
8 7 9 14 16 23 26 25 33 39 44 44 41 43 39 39 40 41 44 44 41 41 38 31 31 29 29 27 28 26 27 26 28 29 32 29 29 34 34 30 28 29 22 28
10 7 8 10 13 19 22 27 29 35 40 42 47 46 39 39 39 38 37 39 39 37 37 37 35 32 27 28 28 24 23 25 26 27 27 32 31 33 32 33 27 24 25 25
12 10 7 7 10 20 23 31 33 34 35 39 39 44 35 35 33 33 36 38 40 39 38 36 34 33 34 36 35 27 23 23 24 24 25 29 33 32 33 28 28 30 31 30
13 12 7 6 9 19 25 30 37 37 36 35 37 39 30 30 30 28 32 35 39 42 41 39 36 29 30 34 35 30 27 22 23 23 25 26 33 30 30 31 30 34 34 35
17 14 12 8 8 17 22 26 32 36 33 32 36 36 25 27 27 27 29 31 40 40 35 33 34 31 29 28 29 27 24 22 22 23 27 30 28 33 35 38 41 38 42 46
20 17 15 10 9 14 22 26 28 29 29 28 27 32 24 26 27 26 25 28 34 35 33 36 35 33 30 28 29 29 24 24 25 30 31 31 31 33 38 41 39 42 42 44
23 23 18 16 12 10 20 23 31 29 33 33 28 28 29 25 23 24 26 26 28 31 34 34 34 33 30 29 28 31 27 24 25 28 28 30 31 34 35 37 42 49 49 49
26 25 19 18 12 11 15 25 27 29 29 30 32 28 27 23 24 25 26 24 25 28 30 33 35 34 34 30 32 32 28 27 26 25 29 33 35 37 38 41 47 54 57 51
29 29 24 15 12 11 17 19 26 30 31 30 27 24 24 27 22 20 23 25 23 23 27 30 33 36 35 32 35 28 27 28 31 33 34 36 40 41 43 42 47 50 60 53
30 30 38 27 19 15 14 19 22 27 28 30 32 28 25 26 20 20 20 19 19 20 23 28 32 33 32 33 34 29 31 34 41 44 42 41 44 46 47 50 49 54 53 58
27 29 28 28 24 21 19 14 18 23 27 28 28 28 27 23 20 18 20 19 19 23 27 29 32 33 34 31 32 29 33 40 42 46 45 49 52 54 59 54 53 48 52 53
30 36 41 30 29 28 24 23 17 18 19 26 25 26 29 27 20 18 19 21 22 25 24 30 33 32 30 30 32 34 34 38 39 42 48 55 59 62 63 65 56 55 57 59
37 44 43 44 38 36 33 30 26 19 14 18 20 21 24 25 21 19 16 20 21 24 23 29 34 34 31 31 29 30 30 32 37 44 49 55 56 56 56 58 58 61 62 63
39 44 51 45 38 38 38 28 30 28 19 12 14 14 16 17 17 16 15 17 21 24 23 26 31 30 30 30 30 29 31 35 38 41 41 43 48 52 52 56 56 63 66 72
44 50 53 52 54 53 32 29 29 29 24 15 13 14 14 13 14 16 13 18 21 25 26 29 29 28 27 28 31 35 33 28 32 35 37 41 43 44 43 42 46 55 59 66
39 44 55 54 51 42 41 46 37 34 26 21 16 16 15 16 18 17 16 18 21 25 28 32 30 29 29 31 34 33 32 29 31 34 35 36 35 41 43 46 49 55 61 63
43 44 50 59 53 51 56 50 44 40 32 23 20 18 17 17 19 10 16 20 22 26 29 29 29 32 31 33 32 33 29 28 29 33 36 37 41 47 48 53 53 57 59 60
54 47 48 58 59 56 48 46 43 49 32 33 21 18 16 17 19 20 23 24 27 29 30 30 30 32 35 35 33 32 32 33 35 35 36 37 43 48 52 60 58 60 62 67
51 53 52 56 65 59 49 46 53 55 45 35 28 22 23 24 23 26 32 32 32 34 34 35 34 33 33 34 36 37 35 33 36 38 41 45 48 55 55 57 58 62 66 70
62 55 59 49 49 50 50 52 56 55 56 44 39 33 32 33 30 34 36 38 37 36 35 35 34 35 35 37 37 33 31 34 37 39 44 49 55 59 56 57 60 63 62 71
57 62 53 48 52 49 48 55 65 62 63 56 53 49 45 46 43 40 40 42 39 36 36 36 37 36 34 34 35 36 38 41 43 46 51 55 61 64 60 60 64 58 61 67
68 56 51 54 49 46 59 70 72 66 63 58 57 57 57 57 53 52 51 49 42 43 43 42 41 38 38 37 37 37 40 43 49 55 62 61 57 59 60 58 54 62 65 68
76 72 62 59 55 51 58 66 78 70 63 60 56 58 56 53 51 51 49 56 54 49 50 48 43 42 41 39 39 41 46 51 52 55 55 48 44 44 49 56 60 62 64 70